Location: Fredericksburg
(30.2750°N, 98.8720°W)
Time: 17:14:31
(UTC-06:00)

ISS - All Passes

Search period start: 08 February 2016 00:00
Search period end: 18 February 2016 00:00
Orbit: 399 x 408 km, 51.6° (Epoch: 08 February)

Date Brightness Start Highest point End Pass type
(mag) Time Alt. Az. Time Alt. Az. Time Alt. Az.
08 Feb - 01:07:31 10° WNW 01:10:27 32° SW 01:13:23 10° SSE night (unlit)
08 Feb - 16:06:19 10° SW 16:09:31 71° NW 16:12:46 10° NE daylight
09 Feb - 00:14:43 10° NW 00:17:57 82° SW 00:21:11 10° SE night (unlit)
09 Feb - 15:13:52 10° SSW 15:16:59 45° SE 15:20:06 10° ENE daylight
09 Feb - 16:51:54 10° WNW 16:53:35 13° NW 16:55:18 10° N daylight
09 Feb - 23:22:16 10° NNW 23:25:20 40° NE 23:28:25 10° ESE night (unlit)
10 Feb - 01:00:29 10° WSW 01:01:28 11° SW 01:02:27 10° SW night (unlit)
10 Feb - 14:22:05 10° S 14:24:30 19° SE 14:26:54 10° E daylight
10 Feb - 15:58:04 10° W 16:00:49 24° NW 16:03:32 10° NNE daylight
10 Feb - 22:30:08 10° NNW 22:32:37 20° NE 22:35:06 10° E night (unlit)
11 Feb - 00:06:18 10° WNW 00:09:01 25° SW 00:11:43 10° S night (unlit)
11 Feb - 15:04:55 10° WSW 15:08:06 53° NW 15:11:17 10° NE daylight
11 Feb - 21:38:43 10° NNE 21:39:46 11° NNE 21:40:49 10° NE night (unlit)
11 Feb - 23:13:17 10° NW 23:16:29 61° SW 23:19:40 10° SSE night (unlit)
12 Feb - 14:12:16 10° SSW 14:15:28 60° SE 14:18:40 10° NE daylight
12 Feb - 15:51:05 10° NW 15:52:10 11° NNW 15:53:16 10° NNW daylight
12 Feb - 22:20:40 10° NW 22:23:50 53° NE 22:27:00 10° ESE night (unlit)
13 Feb - 13:20:10 10° S 13:22:53 25° SE 13:25:37 10° ENE daylight
13 Feb - 14:56:47 10° W 14:59:17 20° NW 15:01:47 10° NNE daylight
13 Feb - 21:28:22 10° NNW 21:31:05 24° NE 21:33:48 10° E night (unlit)
13 Feb - 23:04:59 10° W 23:07:23 19° SW 23:09:47 10° S night (unlit)
14 Feb - 12:29:22 10° SE 12:30:22 11° SE 12:31:23 10° ESE daylight
14 Feb - 14:03:23 10° WSW 14:06:28 41° NW 14:09:35 10° NNE daylight
14 Feb - 20:36:31 10° N 20:38:12 13° NE 20:39:53 10° ENE visible
14 Feb - 22:11:42 10° WNW 22:14:49 45° SW 22:17:54 10° SSE night (unlit)
15 Feb - 13:10:31 10° SW 13:13:45 81° SE 13:17:00 10° NE daylight
15 Feb - 21:18:55 10° NW 21:22:08 70° NE 21:25:20 10° SE night (unlit)
16 Feb - 12:18:09 10° SSW 12:21:06 32° SE 12:24:02 10° ENE daylight
16 Feb - 13:55:21 10° W 13:57:34 17° NW 13:59:48 10° N daylight
16 Feb - 20:26:27 10° NNW 20:29:21 30° NE 20:32:15 10° ESE visible
16 Feb - 22:03:35 10° W 22:05:33 15° SW 22:07:31 10° SSW night (unlit)
17 Feb - 11:26:40 10° SSE 11:28:29 14° SE 11:30:19 10° E daylight
17 Feb - 13:01:43 10° WSW 13:04:41 32° NW 13:07:39 10° NNE daylight
17 Feb - 19:34:21 10° N 19:36:26 16° NE 19:38:31 10° ENE visible
17 Feb - 21:09:58 10° WNW 21:12:56 34° SW 21:15:54 10° SSE visible
